Flag for Liberia Weather past 2 weeks in Gbarnga, Liberia

Now
81 °F

Partly sunny.


Feels Like: 86 °F
Forecast: 70 / 83 °F
Wind: 8 mph from Southwest

Location: Roberts Field

Current Time: Jun 30, 2015 at 1:07:45 PM

Latest Report: Jun 30, 2015 at 12:30 PM


Visibility: N/A

Pressure: 30.01 "Hg

Humidity: 84%

Dew point: 75 °F

Location of GbarngaLocation

Historic Weather in Gbarnga — Graph

°F

Gbarnga temperature yesterday

Maximum temperature yesterday: 79 °F (at 10:00 AM)
Minimum temperature yesterday: 73 °F (at 1:30 PM)
Average temperature yesterday: 76 °F

Past Weeks' High & Low Weather Summary

 TemperatureHumidityPressure
High86 °F (Jun 17, 12:30 PM)100% (Jun 23, 4:30 AM)30.12 "Hg (Jun 23, 4:30 AM)
Low73 °F (Jun 16, 6:00 AM)70% (Jun 17, 2:00 PM)29.86 "Hg (Jun 17, 4:00 PM)
Average78 °F90%29.99 "Hg
* Reported Jun 15 12:00 Noon — Jun 30 12:00 Noon, Gbarnga, Weather by CustomWeather, © 2015

Note: Actual official high and low records may vary slightly from our data, if they occured in-between our weather recording intervals... More about our weather records

Advertising

Gbarnga weather history for previous 24 hours

 ConditionsComfort  
Time TempWeatherWind HumidityBarometerVisibility
12:00 PM
Tue, Jun 30
79 °FPartly sunny.No wind94%30.04 "HgN/A
11:00 AM79 °FRain. Partly sunny.No wind89%30.04 "Hg4 mi
10:30 AM81 °FRain. Partly sunny.6 mph84%30.04 "Hg3 mi
10:00 AM81 °FPartly sunny.No wind84%30.04 "HgN/A
9:30 AM81 °FPartly sunny.No wind84%30.04 "HgN/A
9:00 AM77 °FPartly sunny.No wind89%30.04 "HgN/A
8:30 AM75 °FScattered clouds.No wind94%30.04 "HgN/A
8:00 AM75 °FScattered clouds.No wind94%30.01 "HgN/A
7:30 AM73 °FPartly sunny.No wind100%30.01 "HgN/A
7:00 AM73 °FPassing clouds.No wind94%30.01 "HgN/A
6:30 AM73 °FPassing clouds.No wind94%30.01 "HgN/A
6:00 AM73 °FPassing clouds.No wind94%29.98 "HgN/A
5:30 AM75 °FPassing clouds.No wind94%29.98 "HgN/A
5:00 AM75 °FPassing clouds.No wind94%29.98 "HgN/A
4:30 AM75 °FPassing clouds.No wind94%29.98 "HgN/A
4:00 AM75 °FPassing clouds.No wind94%29.98 "HgN/A
3:30 AM75 °FPassing clouds.No wind94%29.98 "HgN/A
2:00 AM75 °FPassing clouds.No wind94%29.98 "HgN/A
1:30 AM75 °FPassing clouds.No wind94%30.01 "HgN/A
12:30 AM75 °FPassing clouds.No wind94%30.01 "HgN/A
12:00 AM75 °FPassing clouds.No wind94%30.01 "HgN/A
11:30 PM
Mon, Jun 29
75 °FPassing clouds.No wind94%30.01 "HgN/A
11:00 PM75 °FPassing clouds.No wind94%30.04 "HgN/A
10:30 PM75 °FPassing clouds.No wind94%30.01 "HgN/A
9:30 PM75 °FPassing clouds.No wind94%30.01 "HgN/A
9:00 PM75 °FPassing clouds.No wind94%30.01 "HgN/A
8:30 PM75 °FPassing clouds.No wind94%29.98 "HgN/A
8:00 PM75 °FPassing clouds.No wind100%29.98 "HgN/A
7:00 PM75 °FPartly sunny.No wind100%29.95 "HgN/A
6:30 PM77 °FPartly sunny.No wind94%29.95 "HgN/A
6:00 PM77 °FPartly sunny.No wind94%29.95 "HgN/A
5:30 PM77 °FPartly sunny.No wind94%29.95 "HgN/A
5:00 PM77 °FDrizzle. Partly sunny.No wind94%29.95 "HgN/A
4:30 PM77 °FDrizzle. Broken clouds.No wind94%29.95 "Hg6 mi
4:00 PM77 °FLight rain. Partly sunny.5 mph94%29.95 "Hg6 mi
3:30 PM77 °FLight rain. Partly sunny.No wind94%29.98 "Hg6 mi
3:00 PM75 °FLight rain. Partly sunny.No wind94%29.98 "Hg5 mi
2:30 PM73 °FRain. Partly sunny.No wind94%29.98 "Hg3 mi
2:00 PM73 °FRain. Broken clouds.No wind94%30.01 "Hg2 mi
1:30 PM73 °FRain. Mostly cloudy.6 mph94%30.01 "Hg1 mi
1:00 PM75 °FHeavy rain. Mostly cloudy.12 mph94%30.04 "Hg1 mi
Weather by CustomWeather, © 2015

See weather overviewHow to use our weather pages